| time (UTC) | temp F | wind direction | speed MPH | gust MPH | rain 1hr in | rain 24hr in | rain mn in | humidity % | barometer mb |
| 20260507035603 | 57 | 248 | 9.0 | 18.0 | 0.00 | 0.06 | 0.06 | 97 | 1007.5 |
| 20260507034602 | 56 | 230 | 13.0 | 21.0 | 0.00 | 0.06 | 0.06 | 97 | 1007.5 |
| 20260507032602 | 56 | 217 | 14.0 | 21.0 | 0.00 | 0.06 | 0.06 | 97 | 1007.4 |
| 20260507031624 | 56 | 222 | 14.0 | 20.0 | 0.00 | 0.06 | 0.06 | 97 | 1007.2 |
| 20260507030603 | 56 | 221 | 12.0 | 19.0 | 0.00 | 0.06 | 0.06 | 97 | 1007.1 |
| 20260507025603 | 56 | 215 | 13.0 | 20.0 | 0.00 | 0.06 | 0.06 | 97 | 1007.0 |
| 20260507024602 | 56 | 213 | 14.0 | 21.0 | 0.00 | 0.06 | 0.06 | 97 | 1006.9 |
| 20260507023603 | 56 | 212 | 14.0 | 22.0 | 0.00 | 0.06 | 0.06 | 97 | 1007.0 |
| 20260507021603 | 56 | 211 | 14.0 | 23.0 | 0.00 | 0.06 | 0.06 | 96 | 1007.0 |
| 20260507020602 | 56 | 209 | 15.0 | 22.0 | 0.00 | 0.06 | 0.06 | 96 | 1007.1 |
| 20260507015603 | 55 | 197 | 14.0 | 22.0 | 0.00 | 0.06 | 0.06 | 96 | 1007.0 |
| 20260507014602 | 55 | 198 | 14.0 | 24.0 | 0.00 | 0.06 | 0.06 | 96 | 1007.2 |
| 20260507013603 | 55 | 202 | 15.0 | 23.0 | 0.00 | 0.06 | 0.06 | 96 | 1007.3 |
| 20260507012603 | 55 | 205 | 14.0 | 21.0 | 0.00 | 0.06 | 0.06 | 96 | 1007.5 |
| 20260507011603 | 55 | 212 | 15.0 | 22.0 | 0.00 | 0.06 | 0.06 | 96 | 1007.6 |
| 20260507010603 | 55 | 212 | 13.0 | 20.0 | 0.00 | 0.06 | 0.06 | 96 | 1007.6 |
| 20260507005603 | 55 | 216 | 15.0 | 23.0 | 0.00 | 0.06 | 0.06 | 96 | 1007.7 |
| 20260507004602 | 55 | 207 | 13.0 | 25.0 | 0.00 | 0.06 | 0.06 | 96 | 1007.6 |
| 20260507002624 | 55 | 201 | 18.0 | 34.0 | 0.00 | 0.06 | 0.06 | 96 | 1007.4 |
| 20260507001602 | 55 | 192 | 20.0 | 31.0 | 0.00 | 0.06 | 0.06 | 96 | 1007.4 |
| 20260507000603 | 55 | 200 | 17.0 | 32.0 | 0.00 | 0.06 | 0.06 | 96 | 1007.3 |
| 20260506235624 | 55 | 195 | 18.0 | 33.0 | 0.00 | 0.06 | 0.06 | 96 | 1007.3 |
| 20260506234624 | 55 | 191 | 21.0 | 33.0 | 0.00 | 0.06 | 0.06 | 96 | 1007.2 |
| 20260506233603 | 55 | 193 | 19.0 | 33.0 | 0.00 | 0.06 | 0.06 | 95 | 1007.1 |
| 20260506232602 | 55 | 191 | 20.0 | 31.0 | 0.00 | 0.06 | 0.06 | 95 | 1007.2 |
| 20260506231603 | 55 | 184 | 22.0 | 35.0 | 0.00 | 0.06 | 0.06 | 95 | 1007.2 |
| 20260506230602 | 55 | 193 | 17.0 | 28.0 | 0.00 | 0.06 | 0.06 | 95 | 1007.3 |
| 20260506225602 | 55 | 191 | 16.0 | 29.0 | 0.01 | 0.06 | 0.06 | 95 | 1007.4 |
| 20260506224603 | 56 | 188 | 15.0 | 31.0 | 0.01 | 0.06 | 0.06 | 95 | 1007.3 |
| 20260506223602 | 56 | 188 | 16.0 | 36.0 | 0.01 | 0.06 | 0.06 | 95 | 1007.4 |
| 20260506222645 | 56 | 189 | 15.0 | 34.0 | 0.00 | 0.05 | 0.05 | 95 | 1007.6 |
| 20260506221603 | 56 | 187 | 19.0 | 31.0 | 0.00 | 0.05 | 0.05 | 94 | 1007.6 |
| 20260506220603 | 56 | 188 | 18.0 | 35.0 | 0.00 | 0.05 | 0.05 | 94 | 1007.8 |
| 20260506215602 | 57 | 194 | 20.0 | 32.0 | 0.02 | 0.05 | 0.05 | 94 | 1007.8 |
| 20260506214603 | 57 | 196 | 18.0 | 29.0 | 0.01 | 0.04 | 0.04 | 94 | 1007.9 |
| 20260506213602 | 57 | 191 | 19.0 | 31.0 | 0.01 | 0.04 | 0.04 | 93 | 1007.9 |
| 20260506212602 | 57 | 197 | 19.0 | 34.0 | 0.01 | 0.04 | 0.04 | 93 | 1007.9 |
| 20260506211624 | 57 | 192 | 17.0 | 36.0 | 0.01 | 0.04 | 0.04 | 93 | 1008.0 |
| 20260506210602 | 58 | 198 | 20.0 | 28.0 | 0.00 | 0.03 | 0.03 | 92 | 1008.0 |
| 20260506205603 | 58 | 192 | 20.0 | 37.0 | 0.02 | 0.02 | 0.02 | 91 | 1008.1 |
| 20260506204602 | 58 | 192 | 20.0 | 33.0 | 0.01 | 0.01 | 0.01 | 90 | 1008.0 |
| 20260506203603 | 59 | 195 | 18.0 | 33.0 | 0.01 | 0.01 | 0.01 | 90 | 1008.3 |
| 20260506202602 | 59 | 193 | 24.0 | 36.0 | 0.00 | 0.00 | 0.00 | 89 | 1008.3 |
| 20260506201603 | 59 | 188 | 24.0 | 36.0 | 0.00 | 0.00 | 0.00 | 87 | 1008.3 |
| 20260506200603 | 60 | 181 | 17.0 | 32.0 | 0.00 | 0.00 | 0.00 | 85 | 1008.4 |
| 20260506195603 | 61 | 196 | 23.0 | 36.0 | 0.00 | 0.00 | 0.00 | 84 | 1008.4 |
| 20260506194602 | 61 | 188 | 20.0 | 31.0 | 0.00 | 0.00 | 0.00 | 81 | 1008.4 |
| 20260506193603 | 61 | 187 | 19.0 | 33.0 | 0.00 | 0.00 | 0.00 | 79 | 1008.6 |
| 20260506192624 | 62 | 196 | 19.0 | 28.0 | 0.00 | 0.00 | 0.00 | 78 | 1008.6 |
| 20260506191603 | 63 | 191 | 17.0 | 32.0 | 0.00 | 0.00 | 0.00 | 75 | 1008.8 |
| 20260506190603 | 64 | 198 | 17.0 | 37.0 | 0.00 | 0.00 | 0.00 | 72 | 1008.7 |
| 20260506185603 | 64 | 202 | 17.0 | 38.0 | 0.00 | 0.00 | 0.00 | 70 | 1008.6 |
| 20260506184603 | 65 | 201 | 18.0 | 34.0 | 0.00 | 0.00 | 0.00 | 70 | 1008.7 |
| 20260506183602 | 65 | 202 | 21.0 | 45.0 | 0.00 | 0.00 | 0.00 | 70 | 1008.7 |
| 20260506182602 | 65 | 196 | 24.0 | 44.0 | 0.00 | 0.00 | 0.00 | 70 | 1008.8 |
| 20260506181603 | 65 | 186 | 19.0 | 41.0 | 0.00 | 0.00 | 0.00 | 70 | 1008.9 |
| 20260506180602 | 65 | 185 | 20.0 | 37.0 | 0.00 | 0.00 | 0.00 | 69 | 1008.9 |
| 20260506175624 | 67 | 185 | 22.0 | 36.0 | 0.00 | 0.00 | 0.00 | 66 | 1009.2 |
| 20260506174603 | 68 | 188 | 15.0 | 36.0 | 0.00 | 0.00 | 0.00 | 64 | 1009.3 |
| 20260506173603 | 67 | 206 | 22.0 | 40.0 | 0.00 | 0.00 | 0.00 | 65 | 1009.4 |
| 20260506172603 | 67 | 189 | 22.0 | 38.0 | 0.00 | 0.00 | 0.00 | 66 | 1009.3 |
| 20260506171623 | 66 | 190 | 24.0 | 34.0 | 0.00 | 0.00 | 0.00 | 66 | 1009.3 |
| 20260506170603 | 67 | 180 | 24.0 | 39.0 | 0.00 | 0.00 | 0.00 | 67 | 1009.3 |
| 20260506165603 | 66 | 182 | 24.0 | 38.0 | 0.00 | 0.00 | 0.00 | 67 | 1009.4 |
| 20260506164603 | 66 | 189 | 24.0 | 45.0 | 0.00 | 0.00 | 0.00 | 67 | 1009.5 |
| 20260506163603 | 67 | 189 | 23.0 | 38.0 | 0.00 | 0.00 | 0.00 | 67 | 1009.7 |
| 20260506162603 | 67 | 187 | 21.0 | 36.0 | 0.00 | 0.00 | 0.00 | 66 | 1009.9 |
| 20260506161602 | 67 | 194 | 23.0 | 41.0 | 0.00 | 0.00 | 0.00 | 66 | 1009.9 |
| 20260506160603 | 67 | 182 | 16.0 | 32.0 | 0.00 | 0.00 | 0.00 | 66 | 1010.1 |
| 20260506155602 | 67 | 178 | 20.0 | 33.0 | 0.00 | 0.00 | 0.00 | 66 | 1010.2 |
| 20260506154603 | 67 | 181 | 17.0 | 34.0 | 0.00 | 0.00 | 0.00 | 66 | 1010.4 |
| 20260506153602 | 68 | 179 | 20.0 | 32.0 | 0.00 | 0.00 | 0.00 | 65 | 1010.6 |
| 20260506152603 | 67 | 189 | 20.0 | 34.0 | 0.00 | 0.00 | 0.00 | 66 | 1010.8 |
| 20260506151602 | 67 | 187 | 20.0 | 29.0 | 0.00 | 0.00 | 0.00 | 65 | 1010.8 |
| 20260506150603 | 68 | 201 | 24.0 | 37.0 | 0.00 | 0.00 | 0.00 | 64 | 1010.7 |
| 20260506145603 | 67 | 191 | 25.0 | 37.0 | 0.00 | 0.00 | 0.00 | 65 | 1010.7 |
| 20260506144603 | 67 | 187 | 22.0 | 32.0 | 0.00 | 0.00 | 0.00 | 66 | 1010.6 |
| 20260506143603 | 66 | 190 | 19.0 | 37.0 | 0.00 | 0.00 | 0.00 | 66 | 1010.5 |
| 20260506142602 | 66 | 187 | 22.0 | 39.0 | 0.00 | 0.00 | 0.00 | 68 | 1010.5 |
| 20260506141603 | 66 | 184 | 20.0 | 33.0 | 0.00 | 0.00 | 0.00 | 68 | 1010.4 |
| 20260506140602 | 66 | 184 | 18.0 | 37.0 | 0.00 | 0.00 | 0.00 | 70 | 1010.5 |
| 20260506135603 | 65 | 189 | 22.0 | 32.0 | 0.00 | 0.00 | 0.00 | 70 | 1010.4 |
| 20260506134602 | 65 | 188 | 18.0 | 30.0 | 0.00 | 0.00 | 0.00 | 70 | 1010.6 |
| 20260506133603 | 65 | 188 | 20.0 | 28.0 | 0.00 | 0.00 | 0.00 | 71 | 1011.1 |
| 20260506132623 | 64 | 191 | 14.0 | 29.0 | 0.00 | 0.00 | 0.00 | 75 | 1011.1 |
| 20260506131603 | 64 | 189 | 18.0 | 30.0 | 0.00 | 0.00 | 0.00 | 73 | 1011.2 |
| 20260506130603 | 62 | 197 | 18.0 | 33.0 | 0.00 | 0.00 | 0.00 | 76 | 1011.2 |
| 20260506125603 | 62 | 188 | 18.0 | 27.0 | 0.00 | 0.00 | 0.00 | 78 | 1011.0 |
| 20260506124603 | 61 | 199 | 18.0 | 32.0 | 0.00 | 0.00 | 0.00 | 80 | 1011.2 |
| 20260506123624 | 60 | 191 | 15.0 | 37.0 | 0.00 | 0.00 | 0.00 | 82 | 1011.1 |
| 20260506121603 | 59 | 187 | 18.0 | 28.0 | 0.00 | 0.00 | 0.00 | 83 | 1010.9 |
| 20260506120603 | 58 | 192 | 18.0 | 36.0 | 0.00 | 0.00 | 0.00 | 85 | 1011.4 |
| 20260506115602 | 58 | 191 | 19.0 | 32.0 | 0.00 | 0.00 | 0.00 | 85 | 1011.5 |
| 20260506114603 | 58 | 187 | 20.0 | 28.0 | 0.00 | 0.00 | 0.00 | 85 | 1011.8 |
| 20260506113602 | 57 | 188 | 18.0 | 32.0 | 0.00 | 0.00 | 0.00 | 86 | 1011.7 |
| 20260506112603 | 57 | 187 | 16.0 | 32.0 | 0.00 | 0.00 | 0.00 | 87 | 1011.7 |
| 20260506111602 | 57 | 181 | 18.0 | 34.0 | 0.00 | 0.00 | 0.00 | 88 | 1011.5 |
| 20260506110624 | 56 | 191 | 20.0 | 29.0 | 0.00 | 0.00 | 0.00 | 89 | 1011.5 |
| 20260506105603 | 56 | 184 | 16.0 | 29.0 | 0.00 | 0.00 | 0.00 | 89 | 1011.5 |
| 20260506103602 | 56 | 185 | 16.0 | 26.0 | 0.00 | 0.00 | 0.00 | 88 | 1011.6 |
| 20260506102645 | 56 | 187 | 18.0 | 30.0 | 0.00 | 0.00 | 0.00 | 88 | 1011.5 |
| 20260506101602 | 56 | 188 | 17.0 | 35.0 | 0.00 | 0.00 | 0.00 | 88 | 1011.5 |
| 20260506100603 | 56 | 190 | 19.0 | 30.0 | 0.00 | 0.00 | 0.00 | 87 | 1011.4 |
| 20260506095603 | 56 | 192 | 19.0 | 29.0 | 0.00 | 0.00 | 0.00 | 87 | 1011.2 |
| 20260506094603 | 56 | 190 | 21.0 | 28.0 | 0.00 | 0.00 | 0.00 | 87 | 1011.2 |
| 20260506093602 | 56 | 200 | 18.0 | 30.0 | 0.00 | 0.00 | 0.00 | 87 | 1011.2 |
| 20260506091602 | 56 | 192 | 20.0 | 30.0 | 0.00 | 0.00 | 0.00 | 87 | 1011.2 |
| 20260506090624 | 57 | 196 | 17.0 | 31.0 | 0.00 | 0.00 | 0.00 | 86 | 1011.3 |
| 20260506085602 | 57 | 193 | 20.0 | 35.0 | 0.00 | 0.00 | 0.00 | 86 | 1011.3 |
| 20260506084603 | 57 | 185 | 18.0 | 35.0 | 0.00 | 0.00 | 0.00 | 85 | 1011.4 |
| 20260506083602 | 57 | 191 | 21.0 | 31.0 | 0.00 | 0.00 | 0.00 | 85 | 1011.4 |
| 20260506082603 | 57 | 192 | 19.0 | 32.0 | 0.00 | 0.00 | 0.00 | 83 | 1011.5 |
| 20260506081603 | 58 | 190 | 21.0 | 32.0 | 0.00 | 0.00 | 0.00 | 83 | 1011.3 |
| 20260506080603 | 58 | 192 | 19.0 | 32.0 | 0.00 | 0.00 | 0.00 | 82 | 1011.3 |
| 20260506072603 | 58 | 200 | 19.0 | 32.0 | 0.00 | 0.00 | 0.00 | 82 | 1011.2 |
| 20260506071602 | 58 | 195 | 22.0 | 37.0 | 0.00 | 0.00 | 0.00 | 82 | 1011.3 |
| 20260506070603 | 58 | 192 | 23.0 | 32.0 | 0.00 | 0.00 | 0.00 | 81 | 1011.2 |
| 20260506061602 | 58 | 200 | 20.0 | 35.0 | 0.00 | 0.00 | 0.00 | 78 | 1011.3 |
| 20260506060603 | 58 | 198 | 24.0 | 37.0 | 0.00 | 0.00 | 0.00 | 78 | 1011.1 |
| 20260506050602 | 58 | 191 | 20.0 | 33.0 | 0.00 | 0.00 | 0.00 | 75 | 1011.5 |
| 20260506044602 | 59 | 192 | 21.0 | 36.0 | 0.00 | 0.00 | 0.00 | 74 | 1011.7 |
| 20260506043603 | 59 | 198 | 22.0 | 30.0 | 0.00 | 0.00 | 0.00 | 73 | 1011.8 |
| 20260506042603 | 59 | 194 | 24.0 | 35.0 | 0.00 | 0.00 | 0.00 | 73 | 1011.8 |
| 20260506041602 | 58 | 199 | 21.0 | 35.0 | 0.00 | 0.00 | 0.00 | 73 | 1011.7 |